^^
Daily Summary for March 06, 2021 Units:  English    Metric   Both
Daily Weekly Monthly Yearly Custom
  High: Low: Average:
Temperature: 61.0 °F 40.0 °F 48 °F
Dew Point: 44.0 °F 36.0 °F 39.5 °F
Humidity: 93% 43% 75%
Wind Speed: 25mph 0mph 4.8mph
Wind Gust: 25mph - -
Wind- - ESE
Pressure: 30.3 in 30.0 in -
Precipitation: 0.330 in    
Historical Graphs
 
 
Tabular Data for March 06, 2021
Time Temperature Dew Point Pressure Wind Wind Speed Wind Gust Humidity Rainfall Rate (Hourly) solar
00:04 48.0 °F 42.0 °F 30.1 in ENE 6 mph 6 mph 81% 0.000 in 0.00 W/m2
00:09 48.0 °F 42.0 °F 30.1 in NNE 2 mph   81% 0.000 in 0.00 W/m2
00:14 48.0 °F 42.0 °F 30.1 in WNW 4 mph 2 mph 81% 0.000 in 0.00 W/m2
00:19 48.0 °F 42.0 °F 30.1 in North 6 mph 3 mph 81% 0.000 in 0.00 W/m2
00:24 48.0 °F 42.0 °F 30.1 in NW 2 mph 6 mph 81% 0.000 in 0.00 W/m2
00:29 48.0 °F 42.0 °F 30.1 in NW 2 mph   81% 0.000 in 0.00 W/m2
00:34 48.0 °F 42.0 °F 30.1 in NNW 2 mph 2 mph 81% 0.000 in 0.00 W/m2
00:39 48.0 °F 42.0 °F 30.1 in WNW 7 mph 6 mph 81% 0.000 in 0.00 W/m2
00:44 48.0 °F 42.0 °F 30.0 in NW 13 mph 7 mph 81% 0.000 in 0.00 W/m2
00:49 48.0 °F 42.0 °F 30.0 in NNW 9 mph 13 mph 81% 0.000 in 0.00 W/m2
00:54 48.0 °F 42.0 °F 30.0 in WNW 7 mph 3 mph 80% 0.000 in 0.00 W/m2
00:59 48.0 °F 42.0 °F 30.0 in NW 9 mph 9 mph 80% 0.000 in 0.00 W/m2
01:04 48.0 °F 42.0 °F 30.0 in NW 11 mph 6 mph 80% 0.000 in 0.00 W/m2
01:09 47.0 °F 42.0 °F 30.0 in North 4 mph 10 mph 80% 0.000 in 0.00 W/m2
01:14 47.0 °F 42.0 °F 30.0 in NNE 2 mph 3 mph 80% 0.000 in 0.00 W/m2
01:19 48.0 °F 42.0 °F 30.0 in NW 12 mph 3 mph 80% 0.010 in 0.00 W/m2
01:24 48.0 °F 42.0 °F 30.0 in NNW 13 mph 13 mph 82% 0.020 in 0.00 W/m2
01:29 48.0 °F 43.0 °F 30.1 in North 7 mph 10 mph 83% 0.030 in 0.00 W/m2
01:34 48.0 °F 43.0 °F 30.1 in NE 18 mph 16 mph 84% 0.040 in 0.00 W/m2
01:39 47.0 °F 42.0 °F 30.1 in NE 25 mph 17 mph 84% 0.070 in 0.00 W/m2
01:43 47.0 °F 42.0 °F 30.1 in NE 20 mph 25 mph 84% 0.080 in 0.00 W/m2
01:49 46.0 °F 42.0 °F 30.1 in ENE 23 mph 16 mph 86% 0.100 in 0.00 W/m2
01:53 46.0 °F 42.0 °F 30.1 in ENE 18 mph 23 mph 86% 0.110 in 0.00 W/m2
01:59 45.0 °F 41.0 °F 30.1 in ENE 16 mph 17 mph 87% 0.130 in 0.00 W/m2
02:04 45.0 °F 41.0 °F 30.1 in East 13 mph 16 mph 87% 0.140 in 0.00 W/m2
02:09 45.0 °F 41.0 °F 30.1 in East 16 mph 15 mph 87% 0.160 in 0.00 W/m2
02:14 44.0 °F 41.0 °F 30.1 in ENE 9 mph 16 mph 87% 0.170 in 0.00 W/m2
02:19 44.0 °F 40.0 °F 30.1 in ENE 11 mph 10 mph 87% 0.190 in 0.00 W/m2
02:24 43.0 °F 40.0 °F 30.1 in NE 11 mph 10 mph 88% 0.190 in 0.00 W/m2
02:29 43.0 °F 40.0 °F 30.1 in ENE 10 mph 10 mph 88% 0.190 in 0.00 W/m2
02:33 43.0 °F 40.0 °F 30.1 in NNE 11 mph 7 mph 88% 0.200 in 0.00 W/m2
02:39 43.0 °F 40.0 °F 30.1 in NE 13 mph 10 mph 89% 0.200 in 0.00 W/m2
02:44 43.0 °F 40.0 °F 30.1 in NE 13 mph 13 mph 89% 0.190 in 0.00 W/m2
02:49 43.0 °F 40.0 °F 30.1 in ENE 16 mph 13 mph 89% 0.190 in 0.00 W/m2
02:54 43.0 °F 40.0 °F 30.1 in NNE 11 mph 16 mph 90% 0.190 in 0.00 W/m2
02:59 43.0 °F 40.0 °F 30.1 in NE 13 mph 10 mph 90% 0.190 in 0.00 W/m2
03:04 43.0 °F 40.0 °F 30.1 in NNE 7 mph 13 mph 90% 0.170 in 0.00 W/m2
03:09 42.0 °F 40.0 °F 30.1 in ENE 9 mph 7 mph 90% 0.160 in 0.00 W/m2
03:14 42.0 °F 40.0 °F 30.1 in ENE 7 mph 9 mph 90% 0.150 in 0.00 W/m2
03:19 42.0 °F 40.0 °F 30.1 in ENE 5 mph 7 mph 90% 0.130 in 0.00 W/m2
03:24 42.0 °F 40.0 °F 30.1 in NNE 9 mph 6 mph 90% 0.130 in 0.00 W/m2
03:29 42.0 °F 39.0 °F 30.1 in NE 6 mph 9 mph 90% 0.120 in 0.00 W/m2
03:34 42.0 °F 39.0 °F 30.2 in NE 9 mph 7 mph 90% 0.100 in 0.00 W/m2
03:39 42.0 °F 39.0 °F 30.2 in NE 23 mph 13 mph 90% 0.090 in 0.00 W/m2
03:44 42.0 °F 39.0 °F 30.2 in NE 13 mph 23 mph 90% 0.080 in 0.00 W/m2
03:49 42.0 °F 39.0 °F 30.2 in NNE 9 mph 13 mph 90% 0.060 in 0.00 W/m2
03:54 42.0 °F 39.0 °F 30.2 in NE 14 mph 9 mph 91% 0.040 in 0.00 W/m2
03:59 42.0 °F 39.0 °F 30.2 in NE 21 mph 14 mph 90% 0.030 in 0.00 W/m2
04:04 42.0 °F 39.0 °F 30.2 in ENE 16 mph 21 mph 90% 0.030 in 0.00 W/m2
04:09 41.0 °F 39.0 °F 30.2 in NE 18 mph 16 mph 91% 0.020 in 0.00 W/m2
04:14 41.0 °F 38.0 °F 30.2 in NE 14 mph 17 mph 90% 0.020 in 0.00 W/m2
04:19 41.0 °F 38.0 °F 30.2 in ENE 18 mph 14 mph 91% 0.020 in 0.00 W/m2
04:24 41.0 °F 38.0 °F 30.2 in East 4 mph 17 mph 91% 0.010 in 0.00 W/m2
04:29 41.0 °F 38.0 °F 30.2 in NNE 9 mph 3 mph 91% 0.000 in 0.00 W/m2
04:34 41.0 °F 38.0 °F 30.2 in NE 11 mph 10 mph 91% 0.000 in 0.00 W/m2
04:39 41.0 °F 38.0 °F 30.2 in Calm   9 mph 91% 0.000 in 0.00 W/m2
04:44 41.0 °F 38.0 °F 30.2 in NNE 6 mph 3 mph 91% 0.000 in 0.00 W/m2
04:49 41.0 °F 38.0 °F 30.2 in WNW 9 mph 6 mph 91% 0.000 in 0.00 W/m2
04:54 41.0 °F 38.0 °F 30.2 in East 7 mph 9 mph 91% 0.000 in 0.00 W/m2
04:59 41.0 °F 38.0 °F 30.2 in NNW 7 mph 7 mph 91% 0.000 in 0.00 W/m2
05:04 41.0 °F 38.0 °F 30.2 in North 9 mph 7 mph 91% 0.000 in 0.00 W/m2
05:09 41.0 °F 38.0 °F 30.2 in WNW 7 mph 9 mph 91% 0.000 in 0.00 W/m2
05:14 41.0 °F 38.0 °F 30.2 in North 16 mph 9 mph 91% 0.000 in 0.00 W/m2
05:19 41.0 °F 38.0 °F 30.2 in North 7 mph 16 mph 91% 0.000 in 0.00 W/m2
05:24 41.0 °F 38.0 °F 30.2 in NW 6 mph 7 mph 91% 0.000 in 0.00 W/m2
05:29 41.0 °F 38.0 °F 30.2 in NW 6 mph 6 mph 91% 0.000 in 0.00 W/m2
05:34 41.0 °F 38.0 °F 30.2 in NNW 6 mph 6 mph 91% 0.000 in 0.00 W/m2
05:39 41.0 °F 38.0 °F 30.2 in NW 7 mph 3 mph 91% 0.000 in 0.00 W/m2
05:44 41.0 °F 39.0 °F 30.2 in NNE 9 mph 7 mph 92% 0.000 in 0.00 W/m2
05:49 41.0 °F 38.0 °F 30.2 in ENE 9 mph 9 mph 92% 0.000 in 0.00 W/m2
05:54 41.0 °F 38.0 °F 30.2 in ENE 6 mph 3 mph 92% 0.000 in 0.00 W/m2
05:59 41.0 °F 38.0 °F 30.3 in Calm   6 mph 92% 0.000 in 0.00 W/m2
06:04 41.0 °F 38.0 °F 30.3 in North 6 mph 1 mph 92% 0.000 in 0.00 W/m2
06:09 41.0 °F 38.0 °F 30.3 in NNW 4 mph 6 mph 92% 0.000 in 0.00 W/m2
06:14 41.0 °F 38.0 °F 30.3 in NNW 4 mph 3 mph 92% 0.000 in 0.00 W/m2
06:19 41.0 °F 38.0 °F 30.3 in NNW 2 mph 2 mph 92% 0.000 in 0.00 W/m2
06:24 41.0 °F 38.0 °F 30.3 in North 2 mph 2 mph 92% 0.000 in 0.00 W/m2
06:29 40.0 °F 38.0 °F 30.3 in Calm   2 mph 92% 0.000 in 0.00 W/m2
06:34 40.0 °F 38.0 °F 30.3 in Calm     92% 0.000 in 0.00 W/m2
06:39 40.0 °F 38.0 °F 30.3 in Calm     92% 0.000 in 0.00 W/m2
06:44 40.0 °F 38.0 °F 30.3 in Calm     92% 0.000 in 5.00 W/m2
06:49 40.0 °F 38.0 °F 30.3 in Calm     92% 0.000 in 7.00 W/m2
06:54 40.0 °F 38.0 °F 30.3 in NE 2 mph   92% 0.000 in 21.00 W/m2
06:59 40.0 °F 38.0 °F 30.3 in Calm   2 mph 92% 0.000 in 21.00 W/m2
07:04 40.0 °F 38.0 °F 30.3 in Calm     92% 0.000 in 26.00 W/m2
07:09 40.0 °F 38.0 °F 30.3 in Calm     92% 0.000 in 30.00 W/m2
07:14 41.0 °F 38.0 °F 30.3 in Calm     92% 0.000 in 21.00 W/m2
07:19 41.0 °F 38.0 °F 30.3 in ENE 4 mph 2 mph 92% 0.000 in 19.00 W/m2
07:24 41.0 °F 38.0 °F 30.3 in Calm   3 mph 92% 0.000 in 21.00 W/m2
07:29 41.0 °F 38.0 °F 30.3 in Calm     92% 0.000 in 25.00 W/m2
07:34 41.0 °F 38.0 °F 30.3 in Calm     92% 0.000 in 51.00 W/m2
07:39 40.0 °F 38.0 °F 30.3 in Calm     92% 0.000 in 63.00 W/m2
07:44 40.0 °F 38.0 °F 30.3 in Calm     92% 0.000 in 60.00 W/m2
07:49 40.0 °F 38.0 °F 30.3 in Calm     92% 0.000 in 33.00 W/m2
07:54 40.0 °F 38.0 °F 30.3 in Calm     92% 0.000 in 54.00 W/m2
07:59 41.0 °F 38.0 °F 30.3 in Calm     92% 0.000 in 91.00 W/m2
08:04 41.0 °F 39.0 °F 30.3 in North 4 mph 1 mph 92% 0.000 in 102.00 W/m2
08:09 41.0 °F 39.0 °F 30.3 in Calm   3 mph 92% 0.000 in 156.00 W/m2
08:14 41.0 °F 39.0 °F 30.3 in Calm     92% 0.000 in 176.00 W/m2
08:19 41.0 °F 39.0 °F 30.3 in Calm     92% 0.000 in 153.00 W/m2
08:24 42.0 °F 40.0 °F 30.3 in North 2 mph   93% 0.000 in 257.00 W/m2
08:29 42.0 °F 40.0 °F 30.3 in Calm   2 mph 93% 0.000 in 394.00 W/m2
08:34 42.0 °F 40.0 °F 30.3 in North 2 mph   92% 0.000 in 385.00 W/m2
08:39 42.0 °F 40.0 °F 30.3 in Calm   2 mph 92% 0.000 in 315.00 W/m2
08:44 42.0 °F 40.0 °F 30.3 in Calm     92% 0.000 in 315.00 W/m2
08:49 43.0 °F 40.0 °F 30.3 in Calm     92% 0.000 in 336.00 W/m2
08:54 43.0 °F 41.0 °F 30.3 in North 2 mph   92% 0.000 in 420.00 W/m2
08:59 43.0 °F 41.0 °F 30.3 in Calm   2 mph 92% 0.000 in 473.00 W/m2
09:04 43.0 °F 41.0 °F 30.3 in NE 2 mph   92% 0.000 in 512.00 W/m2
09:09 43.0 °F 41.0 °F 30.3 in Calm   2 mph 92% 0.000 in 526.00 W/m2
09:14 43.0 °F 41.0 °F 30.3 in Calm     92% 0.000 in 512.00 W/m2
09:19 43.0 °F 41.0 °F 30.3 in Calm     92% 0.000 in 499.00 W/m2
09:24 44.0 °F 42.0 °F 30.3 in NNW 2 mph 2 mph 92% 0.000 in 510.00 W/m2
09:29 44.0 °F 42.0 °F 30.3 in NE 2 mph 2 mph 92% 0.000 in 570.00 W/m2
09:34 45.0 °F 42.0 °F 30.3 in Calm   2 mph 92% 0.000 in 591.00 W/m2
09:39 45.0 °F 43.0 °F 30.3 in NNE 2 mph 2 mph 92% 0.000 in 626.00 W/m2
09:44 45.0 °F 43.0 °F 30.3 in NE 2 mph   92% 0.000 in 628.00 W/m2
09:49 45.0 °F 43.0 °F 30.3 in NE 2 mph 2 mph 91% 0.000 in 673.00 W/m2
09:54 45.0 °F 43.0 °F 30.3 in NE 2 mph 2 mph 90% 0.000 in 635.00 W/m2
09:59 46.0 °F 43.0 °F 30.3 in ENE 2 mph 2 mph 89% 0.000 in 689.00 W/m2
10:04 46.0 °F 42.0 °F 30.3 in ENE 2 mph 2 mph 88% 0.000 in 689.00 W/m2
10:09 47.0 °F 43.0 °F 30.2 in NE 2 mph 2 mph 86% 0.000 in 700.00 W/m2
10:14 47.0 °F 43.0 °F 30.2 in NE 2 mph 2 mph 85% 0.000 in 698.00 W/m2
10:19 48.0 °F 43.0 °F 30.2 in Calm   2 mph 84% 0.000 in 714.00 W/m2
10:24 48.0 °F 42.0 °F 30.2 in NE 2 mph   80% 0.000 in 712.00 W/m2
10:29 48.0 °F 42.0 °F 30.2 in Calm   2 mph 79% 0.000 in 712.00 W/m2
10:34 49.0 °F 42.0 °F 30.2 in NE 2 mph 1 mph 78% 0.000 in 689.00 W/m2
10:39 49.0 °F 42.0 °F 30.2 in NE 2 mph 2 mph 78% 0.000 in 722.00 W/m2
10:44 50.0 °F 42.0 °F 30.2 in NE 2 mph 2 mph 77% 0.000 in 770.00 W/m2
10:49 50.0 °F 42.0 °F 30.2 in NE 9 mph 5 mph 75% 0.000 in 779.00 W/m2
10:54 51.0 °F 43.0 °F 30.2 in NE 9 mph 9 mph 76% 0.000 in 752.00 W/m2
10:59 51.0 °F 43.0 °F 30.2 in East 2 mph 9 mph 75% 0.000 in 756.00 W/m2
11:04 51.0 °F 43.0 °F 30.2 in ESE 6 mph 2 mph 72% 0.000 in 805.00 W/m2
11:09 52.0 °F 43.0 °F 30.2 in ESE 9 mph 6 mph 72% 0.000 in 802.00 W/m2
11:14 52.0 °F 43.0 °F 30.2 in ESE 4 mph 9 mph 72% 0.000 in 786.00 W/m2
11:19 52.0 °F 44.0 °F 30.2 in ESE 4 mph 2 mph 72% 0.000 in 780.00 W/m2
11:24 53.0 °F 44.0 °F 30.2 in ENE 6 mph 4 mph 71% 0.000 in 784.00 W/m2
11:29 53.0 °F 43.0 °F 30.2 in ENE 6 mph 6 mph 68% 0.000 in 793.00 W/m2
11:34 53.0 °F 42.0 °F 30.2 in ENE 4 mph 2 mph 67% 0.000 in 796.00 W/m2
11:39 54.0 °F 43.0 °F 30.2 in ENE 4 mph 3 mph 67% 0.000 in 798.00 W/m2
11:44 54.0 °F 42.0 °F 30.2 in NE 6 mph 4 mph 65% 0.000 in 800.00 W/m2
11:49 54.0 °F 42.0 °F 30.2 in ENE 7 mph 6 mph 64% 0.000 in 800.00 W/m2
11:54 55.0 °F 42.0 °F 30.2 in East 7 mph 7 mph 63% 0.000 in 800.00 W/m2
11:59 55.0 °F 42.0 °F 30.2 in ENE 2 mph 7 mph 62% 0.000 in 800.00 W/m2
12:04 55.0 °F 41.0 °F 30.2 in NE 4 mph 3 mph 60% 0.000 in 803.00 W/m2
12:09 56.0 °F 42.0 °F 30.2 in NNE 7 mph 3 mph 61% 0.000 in 805.00 W/m2
12:14 56.0 °F 42.0 °F 30.2 in NE 4 mph 7 mph 59% 0.000 in 810.00 W/m2
12:19 56.0 °F 43.0 °F 30.2 in ENE 6 mph 6 mph 60% 0.000 in 788.00 W/m2
12:24 57.0 °F 41.0 °F 30.2 in ESE 7 mph 4 mph 56% 0.000 in 791.00 W/m2
12:29 57.0 °F 41.0 °F 30.2 in ENE 5 mph 7 mph 56% 0.000 in 789.00 W/m2
12:34 57.0 °F 41.0 °F 30.2 in ENE 6 mph 6 mph 54% 0.000 in 777.00 W/m2
12:39 58.0 °F 41.0 °F 30.2 in East 4 mph 3 mph 54% 0.000 in 782.00 W/m2
12:44 58.0 °F 41.0 °F 30.2 in East 6 mph 2 mph 53% 0.000 in 779.00 W/m2
12:49 58.0 °F 40.0 °F 30.2 in NE 7 mph 6 mph 50% 0.000 in 773.00 W/m2
12:54 58.0 °F 40.0 °F 30.2 in NE 2 mph 7 mph 50% 0.000 in 768.00 W/m2
12:59 59.0 °F 40.0 °F 30.2 in NNW 2 mph 2 mph 50% 0.000 in 765.00 W/m2
13:04 59.0 °F 41.0 °F 30.2 in East 11 mph 4 mph 50% 0.000 in 763.00 W/m2
13:09 59.0 °F 40.0 °F 30.2 in SE 4 mph 10 mph 49% 0.000 in 751.00 W/m2
13:14 59.0 °F 40.0 °F 30.2 in ESE 7 mph 3 mph 48% 0.000 in 744.00 W/m2
13:19 60.0 °F 39.0 °F 30.2 in East 6 mph 7 mph 46% 0.000 in 744.00 W/m2
13:24 60.0 °F 38.0 °F 30.2 in SE 7 mph 7 mph 45% 0.000 in 735.00 W/m2
13:29 60.0 °F 37.0 °F 30.2 in East 6 mph 6 mph 43% 0.000 in 728.00 W/m2
13:34 60.0 °F 38.0 °F 30.2 in ENE 11 mph 6 mph 44% 0.000 in 717.00 W/m2
13:39 60.0 °F 37.0 °F 30.2 in NE 13 mph 10 mph 43% 0.000 in 715.00 W/m2
13:44 60.0 °F 38.0 °F 30.2 in East 6 mph 13 mph 44% 0.000 in 714.00 W/m2
13:49 60.0 °F 40.0 °F 30.2 in NE 9 mph 6 mph 47% 0.000 in 707.00 W/m2
13:54 60.0 °F 39.0 °F 30.2 in NE 11 mph 9 mph 46% 0.000 in 689.00 W/m2
13:59 61.0 °F 40.0 °F 30.2 in ESE 6 mph 10 mph 46% 0.000 in 668.00 W/m2
14:04 61.0 °F 40.0 °F 30.2 in East 6 mph 6 mph 47% 0.000 in 664.00 W/m2
14:09 61.0 °F 41.0 °F 30.2 in ESE 7 mph 6 mph 48% 0.000 in 652.00 W/m2
14:14 61.0 °F 39.0 °F 30.2 in East 6 mph 7 mph 45% 0.000 in 638.00 W/m2
14:19 61.0 °F 40.0 °F 30.2 in ESE 9 mph 8 mph 46% 0.000 in 629.00 W/m2
14:24 60.0 °F 39.0 °F 30.2 in NNE 9 mph 9 mph 45% 0.000 in 622.00 W/m2
14:29 61.0 °F 39.0 °F 30.2 in ESE 11 mph 9 mph 45% 0.000 in 606.00 W/m2
14:34 61.0 °F 41.0 °F 30.2 in SE 7 mph 10 mph 48% 0.000 in 587.00 W/m2
14:39 61.0 °F 40.0 °F 30.2 in SE 9 mph 9 mph 47% 0.000 in 580.00 W/m2
14:44 61.0 °F 41.0 °F 30.2 in ESE 7 mph 7 mph 48% 0.000 in 566.00 W/m2
14:49 61.0 °F 39.0 °F 30.2 in ENE 12 mph 11 mph 44% 0.000 in 557.00 W/m2
14:54 61.0 °F 39.0 °F 30.2 in East 13 mph 13 mph 44% 0.000 in 545.00 W/m2
15:09 61.0 °F 39.0 °F 30.2 in ESE 11 mph 5 mph 44% 0.000 in 501.00 W/m2
15:14 61.0 °F 40.0 °F 30.2 in SE 3 mph 9 mph 46% 0.000 in 485.00 W/m2
15:19 61.0 °F 41.0 °F 30.2 in ENE 6 mph 6 mph 47% 0.000 in 471.00 W/m2
15:24 61.0 °F 40.0 °F 30.2 in East 9 mph 6 mph 46% 0.000 in 455.00 W/m2
15:29 61.0 °F 39.0 °F 30.2 in ENE 11 mph 12 mph 44% 0.000 in 445.00 W/m2
15:34 61.0 °F 39.0 °F 30.2 in ESE 9 mph 10 mph 44% 0.000 in 431.00 W/m2
15:39 61.0 °F 40.0 °F 30.2 in ESE 9 mph 9 mph 45% 0.000 in 415.00 W/m2
15:44 61.0 °F 39.0 °F 30.2 in NE 11 mph 11 mph 45% 0.000 in 399.00 W/m2
15:49 61.0 °F 39.0 °F 30.2 in East 2 mph 10 mph 44% 0.000 in 383.00 W/m2
15:50 61.0 °F 38.0 °F 30.2 in Calm   2 mph 43% 0.000 in 367.00 W/m2
15:59 61.0 °F 39.0 °F 30.2 in East 9 mph 7 mph 45% 0.000 in 339.00 W/m2
16:04 61.0 °F 38.0 °F 30.2 in ENE 16 mph 9 mph 43% 0.000 in 339.00 W/m2
16:09 60.0 °F 39.0 °F 30.2 in NE 6 mph 16 mph 46% 0.000 in 311.00 W/m2
16:14 60.0 °F 39.0 °F 30.2 in ENE 6 mph 6 mph 46% 0.000 in 287.00 W/m2
16:19 60.0 °F 39.0 °F 30.2 in East 11 mph 8 mph 47% 0.000 in 281.00 W/m2
16:24 59.0 °F 40.0 °F 30.2 in ENE 7 mph 10 mph 49% 0.000 in 244.00 W/m2
16:29 59.0 °F 39.0 °F 30.2 in NNE 7 mph 7 mph 48% 0.000 in 207.00 W/m2
16:34 59.0 °F 39.0 °F 30.2 in ENE 6 mph 7 mph 48% 0.000 in 153.00 W/m2
16:39 59.0 °F 39.0 °F 30.2 in ENE 9 mph 7 mph 48% 0.000 in 155.00 W/m2
16:44 58.0 °F 39.0 °F 30.2 in East 6 mph 9 mph 48% 0.000 in 155.00 W/m2
16:49 58.0 °F 39.0 °F 30.2 in ESE 5 mph 6 mph 50% 0.000 in 107.00 W/m2
16:54 58.0 °F 40.0 °F 30.2 in ESE 7 mph 6 mph 51% 0.000 in 97.00 W/m2
16:59 57.0 °F 40.0 °F 30.2 in ESE 6 mph 7 mph 52% 0.000 in 102.00 W/m2
17:04 57.0 °F 41.0 °F 30.2 in Calm   6 mph 55% 0.000 in 100.00 W/m2
17:09 57.0 °F 41.0 °F 30.2 in SE 7 mph 3 mph 55% 0.000 in 44.00 W/m2
17:14 56.0 °F 40.0 °F 30.2 in East 4 mph 7 mph 54% 0.000 in 53.00 W/m2
17:19 56.0 °F 40.0 °F 30.2 in ESE 2 mph 3 mph 55% 0.000 in 35.00 W/m2
17:24 56.0 °F 40.0 °F 30.2 in ESE 2 mph 2 mph 56% 0.000 in 19.00 W/m2
17:29 56.0 °F 40.0 °F 30.2 in East 4 mph 2 mph 56% 0.000 in 16.00 W/m2
17:34 55.0 °F 40.0 °F 30.2 in SSE 2 mph 3 mph 57% 0.000 in 14.00 W/m2
17:39 55.0 °F 40.0 °F 30.2 in Calm   2 mph 58% 0.000 in 11.00 W/m2
17:44 54.0 °F 40.0 °F 30.2 in SSE 2 mph   59% 0.000 in 9.00 W/m2
17:49 54.0 °F 40.0 °F 30.2 in SE 6 mph 6 mph 59% 0.000 in 9.00 W/m2
17:54 54.0 °F 40.0 °F 30.2 in Calm   6 mph 59% 0.000 in 7.00 W/m2
17:59 53.0 °F 40.0 °F 30.2 in ESE 4 mph 1 mph 60% 0.000 in 5.00 W/m2
18:04 53.0 °F 40.0 °F 30.2 in Calm   3 mph 61% 0.000 in 0.00 W/m2
18:09 53.0 °F 40.0 °F 30.2 in Calm     62% 0.000 in 0.00 W/m2
18:14 52.0 °F 40.0 °F 30.2 in Calm     62% 0.000 in 0.00 W/m2
18:19 52.0 °F 39.0 °F 30.2 in Calm     63% 0.000 in 0.00 W/m2
18:24 52.0 °F 40.0 °F 30.2 in Calm     64% 0.000 in 0.00 W/m2
18:29 51.0 °F 40.0 °F 30.2 in Calm     65% 0.000 in 0.00 W/m2
18:34 51.0 °F 40.0 °F 30.2 in Calm     66% 0.000 in 0.00 W/m2
18:39 51.0 °F 40.0 °F 30.2 in Calm     67% 0.000 in 0.00 W/m2
18:43 50.0 °F 40.0 °F 30.2 in Calm     67% 0.000 in 0.00 W/m2
18:49 50.0 °F 40.0 °F 30.2 in Calm     68% 0.000 in 0.00 W/m2
18:54 49.0 °F 40.0 °F 30.2 in Calm     69% 0.000 in 0.00 W/m2
18:59 49.0 °F 39.0 °F 30.2 in Calm     69% 0.000 in 0.00 W/m2
19:04 49.0 °F 39.0 °F 30.2 in Calm     70% 0.000 in 0.00 W/m2
19:09 48.0 °F 39.0 °F 30.2 in Calm     70% 0.000 in 0.00 W/m2
19:14 48.0 °F 39.0 °F 30.2 in Calm     71% 0.000 in 0.00 W/m2
19:19 47.0 °F 38.0 °F 30.2 in Calm     72% 0.000 in 0.00 W/m2
19:24 47.0 °F 38.0 °F 30.2 in Calm     72% 0.000 in 0.00 W/m2
19:29 46.0 °F 38.0 °F 30.2 in Calm     73% 0.000 in 0.00 W/m2
19:34 46.0 °F 38.0 °F 30.2 in Calm     74% 0.000 in 0.00 W/m2
19:39 46.0 °F 38.0 °F 30.2 in Calm     74% 0.000 in 0.00 W/m2
19:44 45.0 °F 38.0 °F 30.2 in Calm     75% 0.000 in 0.00 W/m2
19:49 45.0 °F 38.0 °F 30.2 in Calm     76% 0.000 in 0.00 W/m2
19:54 45.0 °F 38.0 °F 30.2 in Calm     76% 0.000 in 0.00 W/m2
19:59 44.0 °F 37.0 °F 30.2 in Calm     76% 0.000 in 0.00 W/m2
20:04 44.0 °F 37.0 °F 30.2 in Calm     78% 0.000 in 0.00 W/m2
20:09 44.0 °F 38.0 °F 30.2 in Calm     79% 0.000 in 0.00 W/m2
20:14 44.0 °F 38.0 °F 30.2 in Calm     79% 0.000 in 0.00 W/m2
20:19 44.0 °F 37.0 °F 30.2 in Calm     79% 0.000 in 0.00 W/m2
20:24 43.0 °F 37.0 °F 30.2 in Calm     79% 0.000 in 0.00 W/m2
20:29 43.0 °F 37.0 °F 30.2 in Calm     80% 0.000 in 0.00 W/m2
20:34 43.0 °F 37.0 °F 30.2 in Calm     81% 0.000 in 0.00 W/m2
20:39 43.0 °F 37.0 °F 30.2 in Calm     81% 0.000 in 0.00 W/m2
20:44 42.0 °F 37.0 °F 30.2 in Calm     81% 0.000 in 0.00 W/m2
20:49 42.0 °F 37.0 °F 30.2 in Calm     82% 0.000 in 0.00 W/m2
20:54 42.0 °F 37.0 °F 30.2 in Calm     82% 0.000 in 0.00 W/m2
20:59 42.0 °F 37.0 °F 30.2 in Calm     82% 0.000 in 0.00 W/m2
21:04 42.0 °F 37.0 °F 30.2 in Calm     82% 0.000 in 0.00 W/m2
21:09 42.0 °F 37.0 °F 30.2 in Calm     82% 0.000 in 0.00 W/m2
21:14 42.0 °F 37.0 °F 30.2 in Calm     82% 0.000 in 0.00 W/m2
21:19 42.0 °F 37.0 °F 30.2 in Calm     82% 0.000 in 0.00 W/m2
21:24 42.0 °F 37.0 °F 30.2 in Calm     83% 0.000 in 0.00 W/m2
21:29 42.0 °F 37.0 °F 30.2 in Calm     83% 0.000 in 0.00 W/m2
21:34 41.0 °F 37.0 °F 30.2 in Calm     83% 0.000 in 0.00 W/m2
21:39 41.0 °F 37.0 °F 30.2 in Calm     84% 0.000 in 0.00 W/m2
21:44 41.0 °F 37.0 °F 30.2 in Calm     84% 0.000 in 0.00 W/m2
21:49 41.0 °F 37.0 °F 30.2 in Calm     84% 0.000 in 0.00 W/m2
21:54 41.0 °F 37.0 °F 30.2 in Calm     84% 0.000 in 0.00 W/m2
21:59 41.0 °F 37.0 °F 30.2 in Calm     84% 0.000 in 0.00 W/m2
22:04 41.0 °F 37.0 °F 30.2 in Calm     84% 0.000 in 0.00 W/m2
22:09 41.0 °F 36.0 °F 30.2 in Calm     84% 0.000 in 0.00 W/m2
22:14 41.0 °F 36.0 °F 30.2 in Calm     84% 0.000 in 0.00 W/m2
22:19 41.0 °F 36.0 °F 30.2 in Calm     85% 0.000 in 0.00 W/m2
22:24 41.0 °F 36.0 °F 30.2 in Calm     85% 0.000 in 0.00 W/m2
22:29 40.0 °F 36.0 °F 30.2 in Calm     85% 0.000 in 0.00 W/m2
22:34 40.0 °F 36.0 °F 30.2 in Calm     85% 0.000 in 0.00 W/m2
22:39 40.0 °F 36.0 °F 30.2 in Calm     85% 0.000 in 0.00 W/m2
22:44 40.0 °F 36.0 °F 30.2 in Calm     85% 0.000 in 0.00 W/m2
22:49 40.0 °F 36.0 °F 30.2 in Calm     85% 0.000 in 0.00 W/m2
22:54 40.0 °F 36.0 °F 30.2 in Calm     85% 0.000 in 0.00 W/m2
22:59 40.0 °F 36.0 °F 30.2 in Calm     85% 0.000 in 0.00 W/m2
23:03 40.0 °F 36.0 °F 30.2 in Calm     85% 0.000 in 0.00 W/m2
El Dorado Weather
Compliments of Weather Underground - 2 mb